Location: Ivrea
(45.4365°N, 7.8791°E)
Time: 08:42:51
(UTC+02:00)

Tiangong - Visible Passes

Search period start: 11 October 2024 00:00
Search period end: 21 October 2024 00:00
Orbit: 372 x 377 km, 41.5° (Epoch: 10 October)

Date Brightness Start Highest point End Pass type
(mag) Time Alt. Az. Time Alt. Az. Time Alt. Az.
17 Oct 0.8 06:45:46 10° SSE 06:46:40 11° SSE 06:47:35 10° SE visible
18 Oct 0.0 07:17:03 10° SW 07:19:33 22° SSE 07:22:03 10° ESE visible
19 Oct 0.4 06:14:55 12° S 06:16:25 15° SSE 06:18:20 10° ESE visible
20 Oct -0.5 06:46:46 12° SW 06:49:13 28° SSE 06:51:56 10° ESE visible
